Guthrie, OK

3:38 PM CDT on April 20, 2018 (GMT -0500)
Guthrie Municipal

Weather History for KGOK - April, 2014

Change the Weather History Date:

Saturday, April 5, 2014

  Actual Average Record
Temperature  
Mean Temperature 56 °F -  
Max Temperature 70 °F 70 °F 88 °F (2016)
Min Temperature 44 °F 40 °F 25 °F (1950)
Degree Days  
Heating Degree Days 8    
Growing Degree Days 6 (Base 50)    
Moisture  
Dew Point 24 °F    
Average Humidity 31    
Maximum Humidity 49    
Minimum Humidity 15    
Precipitation  
Precipitation 0.00 in - - ()
Sea Level Pressure  
Sea Level Pressure 30.06 in    
Wind  
Wind Speed 9 mph (SE)    
Max Wind Speed 14 mph    
Max Gust Speed 21 mph    
Visibility 9 miles    
Events      
Averages and records for this station are not official NWS values.
T = Trace of Precipitation, MM = Missing Value Source: NWS Daily Summary

Daily Weather History Graph

Daily Weather History Graph

Search for Another Location

Airport or City:

Astronomy

Apr. 05, 2014 Rise Set
Actual Time 7:10 AM CDT 7:54 PM CDT
Civil Twilight 6:44 AM CDT 8:20 PM CDT
Nautical Twilight 6:13 AM CDT 8:51 PM CDT
Astronomical Twilight 5:42 AM CDT 9:22 PM CDT
Moon 11:25 AM CDT (4/5) 12:59 AM CDT (4/5)
Length of Visible Light 13h 36m
Length of Day
12h 44m
Waxing Crescent, 34% of the Moon is Illuminated
Apr 5
Waxing Crescent
Apr 7
First Quarter
Apr 15
Full
Apr 22
Last Quarter
Apr 29
New

Hourly Weather History & Observations

Time (CDT) Temp. Windchill Dew Point Humidity Pressure Visibility Wind Dir Wind Speed Gust Speed Precip Events Conditions
12:53 AM 46.0 °F 41.9 °F 21.0 °F 37% 30.14 in 5.0 mi ESE 8.1 mph - N/A   Haze
1:53 AM 48.0 °F - 19.9 °F 33% 30.13 in 10.0 mi ESE 8.1 mph - N/A   Clear
2:53 AM 45.0 °F 41.2 °F 21.0 °F 39% 30.12 in 9.0 mi ESE 6.9 mph - N/A   Clear
3:53 AM 45.0 °F 40.6 °F 21.9 °F 40% 30.13 in 8.0 mi SE 8.1 mph - N/A   Clear
4:53 AM 45.0 °F 41.8 °F 23.0 °F 42% 30.12 in 7.0 mi SE 5.8 mph - N/A   Clear
5:53 AM 44.1 °F 39.5 °F 25.0 °F 47% 30.12 in 8.0 mi SE 8.1 mph - N/A   Clear
6:53 AM 44.1 °F 39.0 °F 26.1 °F 49% 30.12 in 7.0 mi SE 9.2 mph - N/A   Clear
7:53 AM 45.0 °F 41.2 °F 27.0 °F 49% 30.14 in 7.0 mi SE 6.9 mph - N/A   Clear
8:53 AM 48.9 °F - 28.0 °F 44% 30.15 in 8.0 mi SSE 10.4 mph - N/A   Clear
9:53 AM 53.1 °F - 28.0 °F 38% 30.14 in 9.0 mi SE 11.5 mph - N/A   Clear
10:53 AM 57.9 °F - 27.0 °F 31% 30.14 in 9.0 mi SE 11.5 mph - N/A   Clear
11:53 AM 61.0 °F - 25.0 °F 25% 30.12 in 9.0 mi ESE 9.2 mph - N/A   Clear
12:53 PM 64.9 °F - 24.1 °F 21% 30.09 in 10.0 mi South 11.5 mph 19.6 mph N/A   Clear
1:53 PM 66.9 °F - 21.0 °F 17% 30.05 in 10.0 mi SE 10.4 mph 17.3 mph N/A   Clear
2:53 PM 69.1 °F - 21.9 °F 17% 30.01 in 10.0 mi ESE 10.4 mph - N/A   Clear
3:53 PM 69.1 °F - 19.9 °F 15% 29.97 in 10.0 mi SE 12.7 mph 18.4 mph N/A   Clear
4:53 PM 69.1 °F - 21.0 °F 16% 29.95 in 10.0 mi ESE 13.8 mph 20.7 mph N/A   Clear
5:53 PM 66.9 °F - 19.0 °F 16% 29.95 in 10.0 mi SE 11.5 mph - N/A   Clear
6:53 PM 64.9 °F - 23.0 °F 20% 29.94 in 10.0 mi SE 8.1 mph - N/A   Partly Cloudy
7:53 PM 62.1 °F - 23.0 °F 22% 29.95 in 10.0 mi SE 6.9 mph - N/A   Overcast
8:53 PM 61.0 °F - 25.0 °F 25% 29.96 in 10.0 mi ESE 6.9 mph - N/A   Overcast
9:53 PM 60.1 °F - 26.1 °F 27% 30.00 in 9.0 mi South 11.5 mph - N/A   Overcast
10:53 PM 57.0 °F - 27.0 °F 32% 30.04 in 10.0 mi South 8.1 mph - N/A   Overcast
11:53 PM 57.0 °F - 28.9 °F 34% 30.04 in 10.0 mi South 10.4 mph - N/A   Overcast